Regional Weather Roundup
Issued by NWS

Home | Current Version | Previous Version | Graphics & Text | Print | Product List | Glossary On
Versions: 1 2 3 4 5 6 7 8 9 10 11 12 13 14 15 16 17 18 19 20 21 22 23 24 25 26 27 28 29 30 31 32 33 34 35 36 37 38 39 40 41 42 43 44 45 46 47 48 49 50
000
ASUS43 KDTX 180910
RWRMI
MICHIGAN HOURLY REGIONAL WEATHER ROUNDUP
NATIONAL WEATHER SERVICE DETROIT/PONTIAC MI
500 AM EDT THU SEP 18 2014

NOTE: "FAIR" INDICATES FEW OR NO CLOUDS BELOW 12,000 FEET WITH NO
SIGNIFICANT WEATHER AND/OR OBSTRUCTION TO VISIBILITY.

MIZ047>049-052>055-059>063-066>070-074>076-081>083-181000-
SOUTHEAST LOWER MICHIGAN

CITY           SKY/WX    TMP DP  RH WIND       PRES   REMARKS
ADRIAN         CLEAR     46  44  93 CALM      30.06R
ALMA           MOCLDY    45  44  97 CALM      30.08R
ANN ARBOR      CLEAR     40  38  93 CALM      30.05R
BAD AXE        MOCLDY    50  50 100 CALM      30.07R
CARO           PTCLDY    47  46  96 N3        30.06R
DETROIT CITY   CLEAR     53  46  77 CALM      30.05R
DETROIT        PTCLDY    51  45  79 CALM      30.05R
FLINT          PTCLDY    50  45  83 CALM      30.07R
GROSSE ILE     CLEAR     52  46  82 CALM      30.03R
HILLSDALE      CLEAR     43  43 100 CALM      30.06R FOG
HOWELL         CLEAR     44  43  97 CALM      30.06R

CITY           SKY/WX    TMP DP  RH WIND       PRES   REMARKS
JACKSON        CLEAR     41  39  93 SW3       30.07R
LAMBERTVILLE   CLEAR     45  41  87 CALM      30.05R
LANSING        CLEAR     43  42  97 CALM      30.08R FOG
LAPEER         FAIR      41  40  97 CALM      30.06R
MASON          FOG       42  41  97 CALM      30.07R VSB 3/4
MT. CLEMENS    CLEAR     49  45  84 NW5       30.03R
PONTIAC        CLEAR     50  45  83 N5        30.05R
PORT HOPE        N/A     56  50  80 NE15      30.05R
PORT HURON     CLEAR     46  46 100 NW6       30.04R
TRI CITIES     CLOUDY    50  47  89 N5        30.08R
TROY           CLEAR     54  46  74 NW5       30.06R
SAGINAW HB     MOCLDY    50  50 100 CALM      30.06R
$$
MIZ043>046-050>051-056>058-064>065-071>073-077>080-181000-
SOUTHWEST LOWER MICHIGAN

CITY           SKY/WX    TMP DP  RH WIND       PRES   REMARKS
BATTLE CREEK   CLEAR     44  41  89 CALM      30.07R
BENTON HARBOR  CLEAR     41  40  96 CALM      30.07R
BIG RAPIDS     CLOUDY    46  46 100 CALM      30.08R
COLDWATER      FOG       44  43  97 MISG      30.06S VSB 1/4
FREMONT        FAIR      46  45  96 E3        30.06S
HOLLAND        CLEAR     45  43  93 CALM      30.07R
GRAND RAPIDS   CLEAR     45  42  89 CALM      30.08R
IONIA          FAIR      45  44  97 CALM      30.07R
KALAMAZOO      CLEAR     43  41  93 CALM      30.08R FOG
LUDINGTON      CLOUDY    52  50  92 N6        30.09R
MARSHALL       CLEAR     40  40  99 CALM      30.06S FOG
MOUNT PLEASANT CLOUDY    45  44  97 CALM      30.08R
MUSKEGON       CLEAR     46  42  86 MISG      30.07R
SOUTH HAVEN    CLEAR     43  43  99 CALM      30.07R
$$
MIZ016>042-181000-
NORTHERN LOWER MICHIGAN

CITY           SKY/WX    TMP DP  RH WIND       PRES   REMARKS
ALPENA         CLOUDY    46  42  86 NE9       30.12R
BEAVER ISLAND  CLOUDY    46  38  76 N6        30.14R
BELLAIRE       CLOUDY    49  44  81 NE7       30.11R
CADILLAC       MOCLDY    48  47  98 CALM      30.07R
CHARLEVOIX     CLOUDY    48  42  80 NE8       30.14S
FRANKFORT      CLOUDY    52  45  75 N6        30.10R
GAYLORD        CLOUDY    45  42  89 NE7       30.10R
GRAYLING       CLOUDY    49  48  97 NE6       30.10R
HARBOR SPRINGS CLOUDY    47  41  80 NE6       30.12R
HOUGHTON LAKE  CLOUDY    48  46  93 NE6       30.08R
MANISTEE       PTCLDY    50  43  76 N3        30.10R
OSCODA         CLOUDY    49  48  94 N10       30.08R
PELLSTON       CLOUDY    45  41  86 NE8       30.13R
ROGERS CITY    CLOUDY    45  42  87 NE9       30.13R
TRAVERSE CITY  CLOUDY    52  45  77 NE7       30.09R
$$
MIZ007>008-015-181000-
EASTERN UPPER MICHIGAN

CITY           SKY/WX    TMP DP  RH WIND       PRES   REMARKS
KINROSS        PTCLDY    37  36  93 CALM      30.16R
MACKINAC ISLAN CLOUDY    42  37  80 NE12      30.14R
NEWBERRY       CLOUDY    40  36  86 NE3       30.15R
S. S. MARIE    CLEAR     37  32  82 NE6       30.16R WCI  32
MUNISING         N/A     44  35  70 SE6       30.16S
$$
MIZ004>006-011>014-085-181000-
CENTRAL UPPER MICHIGAN

CITY           SKY/WX    TMP DP  RH WIND       PRES   REMARKS
MANISTIQUE     CLOUDY    41  35  80 N3        30.15S
ESCANABA       CLOUDY    43  34  70 CALM      30.16S
MENOMINEE      CLOUDY    43  34  70 N8        30.15R
SAWYER-GWINN   CLOUDY    41  33  73 CALM      30.15S
$$
MIZ001>003-009>011-084-181000-
WESTERN UPPER MICHIGAN

CITY           SKY/WX    TMP DP  RH WIND       PRES   REMARKS
IRON MOUNTAIN  CLOUDY    41  33  73 N5        30.15S
HOUGHTON       CLOUDY    39  33  79 NE3       30.17R
COPPER HARBOR    N/A     35  31  85 SW6       30.19R WCI  30
IRONWOOD       CLOUDY    39  36  87 E7        30.14R WCI  34
$$

ABBREVIATIONS USED IN REMARKS
   TC - TEMPERATURE IN CELSIUS
  WCI - WIND CHILL INDEX
   HX - HEAT INDEX
  VSB - VISIBILITY



USA.gov is the U.S. government's official web portal to all federal, state and local government web resources and services.